{"data":{"norad_id":53015,"intl_designator":"2022-076AF","name":"STARLINK-4262","alt_names":[],"object_type":"PAYLOAD","status":"ACTIVE","operator":null,"country":"US","launch_date":"2022-07-07","launch_site_code":"AFETR","launch_vehicle":null,"mission":null,"orbit_class":"UNKNOWN","rcs_meters":null,"size_class":null,"mass_kg":null,"dimensions":null,"purposes":["comms"],"wikipedia_slug":null,"has_3d_model":false,"image_url":null,"decayed_at":null,"tle_current":{"epoch":"2026-05-25T03:03:51.575328Z","epoch_age_seconds":67185,"freshness":"FRESH","line1":"1 53015U 22076AF  26145.12768027 -.00000578  00000+0 -18243-4 0  9995","line2":"2 53015  53.2146 100.9759 0001254  75.0216 285.0914 15.08831856214529","mean_motion":15.08831856,"eccentricity":0.0001254,"inclination_deg":53.2146,"raan_deg":100.9759,"arg_perigee_deg":75.0216,"mean_anomaly_deg":285.0914,"bstar":-1.8243e-5,"rev_number":21452,"period_min":95.438069807031,"perigee_km":538.90077670365,"apogee_km":540.63578734838,"semimajor_km":6917.905282026,"source":"CELESTRAK","updated_at":"2026-05-25T13:38:17.279822Z"}}}